Back to catalog

ICEYE-X53

AliveScienceSSO
NORAD 64584·PAYLOAD·🇫🇮 Finland

Launched Jun 23, 2025 from Vandenberg Space Force Base

Loading…

Next Passes (next 24 hours)

TLE

FreshSource: Space-Track

Epoch: Sep 14, 2026, 13:26 UTC

1 64584U 25135BJ  26257.55988492  .00004335  00000-0  34515-3 0  9991
2 64584  97.7316  13.9096 0001553 133.8874 226.2478 15.00901258 67485

Track ICEYE-X53 in real time with AllMySat

Download on the App Store